Time,TemperatureF,DewpointF,PressureIn,WindDirection,WindDirectionDegrees,WindSpeedMPH,WindSpeedGustMPH,Humidity,HourlyPrecipIn,Conditions,Clouds,dailyrainin,SoftwareType,DateUTC
2013-08-03 00:03:00,64.2,58.9,30.23,NNE,22,1.0,3.0,83,0.00,,,0.00,Weather View 32 v70,2013-08-03 05:03:00,
2013-08-03 00:08:00,64.2,58.9,30.23,NNE,22,1.0,3.0,83,0.00,,,0.00,Weather View 32 v70,2013-08-03 05:08:00,
2013-08-03 00:13:00,64.2,58.9,30.23,NNE,22,1.0,3.0,83,0.00,,,0.00,Weather View 32 v70,2013-08-03 05:13:00,
2013-08-03 00:18:00,64.1,58.8,30.23,NNE,22,0.0,3.0,83,0.00,,,0.00,Weather View 32 v70,2013-08-03 05:18:00,
2013-08-03 00:23:00,64.0,58.7,30.23,NNE,22,1.0,3.0,83,0.00,,,0.00,Weather View 32 v70,2013-08-03 05:23:00,
2013-08-03 00:28:00,63.9,58.6,30.23,NNE,22,2.0,3.0,83,0.00,,,0.00,Weather View 32 v70,2013-08-03 05:28:00,
2013-08-03 00:33:00,63.9,59.0,30.22,NNE,22,1.0,3.0,84,0.00,,,0.00,Weather View 32 v70,2013-08-03 05:33:00,
2013-08-03 00:38:00,63.9,59.0,30.22,NNE,22,0.0,3.0,84,0.00,,,0.00,Weather View 32 v70,2013-08-03 05:38:00,
2013-08-03 00:43:00,63.8,59.2,30.22,NNE,22,0.0,3.0,85,0.00,,,0.00,Weather View 32 v70,2013-08-03 05:43:00,
2013-08-03 00:48:00,63.6,59.0,30.23,NNE,22,2.0,3.0,85,0.00,,,0.00,Weather View 32 v70,2013-08-03 05:48:00,
2013-08-03 00:53:00,63.5,58.9,30.23,NNE,22,2.0,3.0,85,0.00,,,0.00,Weather View 32 v70,2013-08-03 05:53:00,
2013-08-03 00:58:00,63.5,58.9,30.23,NNE,22,1.0,3.0,85,0.00,,,0.00,Weather View 32 v70,2013-08-03 05:58:00,
2013-08-03 01:03:00,63.4,59.1,30.23,NNE,22,1.0,2.0,86,0.00,,,0.00,Weather View 32 v70,2013-08-03 06:03:00,
2013-08-03 01:08:00,63.4,59.1,30.24,NNE,22,2.0,2.0,86,0.00,,,0.00,Weather View 32 v70,2013-08-03 06:08:00,
2013-08-03 01:13:00,63.4,59.5,30.24,NNE,22,1.0,2.0,87,0.00,,,0.00,Weather View 32 v70,2013-08-03 06:13:00,
2013-08-03 01:18:00,63.3,59.4,30.24,NNE,22,1.0,2.0,87,0.00,,,0.00,Weather View 32 v70,2013-08-03 06:18:00,
2013-08-03 01:23:00,63.2,59.6,30.24,NNE,22,0.0,2.0,88,0.00,,,0.00,Weather View 32 v70,2013-08-03 06:23:00,
2013-08-03 01:28:00,63.2,59.6,30.24,NNE,22,0.0,2.0,88,0.00,,,0.00,Weather View 32 v70,2013-08-03 06:28:00,
2013-08-03 01:33:00,63.1,59.8,30.24,NNE,22,0.0,2.0,89,0.00,,,0.00,Weather View 32 v70,2013-08-03 06:33:00,
2013-08-03 01:38:00,63.0,59.7,30.24,NNE,22,0.0,2.0,89,0.00,,,0.00,Weather View 32 v70,2013-08-03 06:38:00,
2013-08-03 01:43:00,62.9,59.6,30.24,NNE,22,0.0,2.0,89,0.00,,,0.00,Weather View 32 v70,2013-08-03 06:43:00,
2013-08-03 01:48:00,62.9,59.6,30.24,NNE,22,0.0,2.0,89,0.00,,,0.00,Weather View 32 v70,2013-08-03 06:48:00,
2013-08-03 01:53:00,62.9,59.6,30.24,NNE,22,0.0,2.0,89,0.00,,,0.00,Weather View 32 v70,2013-08-03 06:53:00,
2013-08-03 01:58:00,62.9,59.9,30.24,NNE,22,0.0,2.0,90,0.00,,,0.00,Weather View 32 v70,2013-08-03 06:58:00,
2013-08-03 02:03:00,62.7,59.7,30.24,NNE,22,0.0,2.0,90,0.00,,,0.00,Weather View 32 v70,2013-08-03 07:03:00,
2013-08-03 02:08:00,62.7,59.7,30.24,NNE,22,1.0,2.0,90,0.00,,,0.00,Weather View 32 v70,2013-08-03 07:08:00,
2013-08-03 02:13:00,62.9,59.9,30.25,NNE,22,0.0,2.0,90,0.00,,,0.00,Weather View 32 v70,2013-08-03 07:13:00,
2013-08-03 02:18:00,62.9,59.9,30.24,NNE,22,1.0,2.0,90,0.00,,,0.00,Weather View 32 v70,2013-08-03 07:18:00,
2013-08-03 02:23:00,62.9,59.9,30.24,NNE,22,0.0,2.0,90,0.00,,,0.00,Weather View 32 v70,2013-08-03 07:23:00,
2013-08-03 02:28:00,62.9,60.2,30.24,NNE,22,2.0,2.0,91,0.00,,,0.00,Weather View 32 v70,2013-08-03 07:28:00,
2013-08-03 02:33:00,62.9,60.2,30.24,NNE,22,1.0,2.0,91,0.00,,,0.00,Weather View 32 v70,2013-08-03 07:33:00,
2013-08-03 02:38:00,62.7,60.3,30.24,NNE,22,1.0,2.0,92,0.00,,,0.00,Weather View 32 v70,2013-08-03 07:38:00,
2013-08-03 02:43:00,62.6,59.9,30.24,NNE,22,2.0,2.0,91,0.00,,,0.00,Weather View 32 v70,2013-08-03 07:43:00,
2013-08-03 02:48:00,62.5,60.1,30.24,North,360,1.0,2.0,92,0.00,,,0.00,Weather View 32 v70,2013-08-03 07:48:00,
2013-08-03 02:53:00,62.4,60.3,30.24,North,360,0.0,2.0,93,0.00,,,0.00,Weather View 32 v70,2013-08-03 07:53:00,
2013-08-03 02:58:00,62.4,60.6,30.24,North,360,2.0,2.0,94,0.00,,,0.00,Weather View 32 v70,2013-08-03 07:58:00,
2013-08-03 03:03:00,62.4,60.6,30.25,North,360,1.0,2.0,94,0.00,,,0.00,Weather View 32 v70,2013-08-03 08:03:00,
2013-08-03 03:08:00,62.4,60.6,30.25,North,360,2.0,2.0,94,0.00,,,0.00,Weather View 32 v70,2013-08-03 08:08:00,
2013-08-03 03:13:00,62.5,60.7,30.25,North,360,0.0,2.0,94,0.00,,,0.00,Weather View 32 v70,2013-08-03 08:13:00,
2013-08-03 03:18:00,62.6,60.8,30.25,North,360,1.0,2.0,94,0.00,,,0.00,Weather View 32 v70,2013-08-03 08:18:00,
2013-08-03 03:23:00,62.7,60.9,30.25,North,360,0.0,2.0,94,0.00,,,0.00,Weather View 32 v70,2013-08-03 08:23:00,
2013-08-03 03:28:00,62.8,61.0,30.25,NW,315,1.0,2.0,94,0.00,,,0.00,Weather View 32 v70,2013-08-03 08:28:00,
2013-08-03 03:33:00,63.0,61.5,30.25,NW,315,0.0,3.0,95,0.00,,,0.00,Weather View 32 v70,2013-08-03 08:33:00,
2013-08-03 03:38:00,62.9,61.7,30.25,NW,315,0.0,3.0,96,0.00,,,0.00,Weather View 32 v70,2013-08-03 08:38:00,
2013-08-03 03:43:00,62.8,61.6,30.25,NW,315,2.0,3.0,96,0.00,,,0.00,Weather View 32 v70,2013-08-03 08:43:00,
2013-08-03 03:48:00,62.6,61.7,30.24,NW,315,0.0,3.0,97,0.00,,,0.00,Weather View 32 v70,2013-08-03 08:48:00,
2013-08-03 03:53:00,62.4,61.5,30.24,NW,315,0.0,3.0,97,0.00,,,0.00,Weather View 32 v70,2013-08-03 08:53:00,
2013-08-03 03:58:00,62.1,61.2,30.24,NW,315,0.0,3.0,97,0.00,,,0.00,Weather View 32 v70,2013-08-03 08:58:00,
2013-08-03 04:03:00,61.9,60.7,30.25,North,360,1.0,3.0,96,0.00,,,0.00,Weather View 32 v70,2013-08-03 09:03:00,
2013-08-03 04:08:00,61.8,60.6,30.24,North,360,0.0,3.0,96,0.00,,,0.00,Weather View 32 v70,2013-08-03 09:08:00,
2013-08-03 04:13:00,61.8,60.6,30.24,North,360,2.0,3.0,96,0.00,,,0.00,Weather View 32 v70,2013-08-03 09:13:00,
2013-08-03 04:18:00,61.8,60.3,30.25,North,360,0.0,3.0,95,0.00,,,0.00,Weather View 32 v70,2013-08-03 09:18:00,
2013-08-03 04:23:00,61.8,60.3,30.24,North,360,1.0,3.0,95,0.00,,,0.00,Weather View 32 v70,2013-08-03 09:23:00,
2013-08-03 04:28:00,61.8,60.0,30.24,North,360,0.0,3.0,94,0.00,,,0.00,Weather View 32 v70,2013-08-03 09:28:00,
2013-08-03 04:33:00,61.7,60.0,30.24,North,360,0.0,2.0,94,0.00,,,0.00,Weather View 32 v70,2013-08-03 09:33:00,
2013-08-03 04:38:00,61.6,59.8,30.24,North,360,1.0,2.0,94,0.00,,,0.00,Weather View 32 v70,2013-08-03 09:38:00,
2013-08-03 04:43:00,61.6,59.8,30.25,North,360,0.0,2.0,94,0.00,,,0.00,Weather View 32 v70,2013-08-03 09:43:00,
2013-08-03 04:48:00,61.6,59.8,30.25,North,360,0.0,2.0,94,0.00,,,0.00,Weather View 32 v70,2013-08-03 09:48:00,
2013-08-03 04:53:00,61.7,60.0,30.25,NNE,22,0.0,2.0,94,0.00,,,0.00,Weather View 32 v70,2013-08-03 09:53:00,
2013-08-03 04:58:00,61.9,60.1,30.25,NNE,22,2.0,2.0,94,0.00,,,0.00,Weather View 32 v70,2013-08-03 09:58:00,
2013-08-03 05:03:00,62.1,60.0,30.26,NNE,22,1.0,3.0,93,0.00,,,0.00,Weather View 32 v70,2013-08-03 10:03:00,
2013-08-03 05:08:00,62.1,59.4,30.26,NNE,22,1.0,3.0,91,0.00,,,0.00,Weather View 32 v70,2013-08-03 10:08:00,
2013-08-03 05:13:00,62.2,58.9,30.25,North,360,1.0,5.0,89,0.00,,,0.00,Weather View 32 v70,2013-08-03 10:13:00,
2013-08-03 05:18:00,62.3,58.7,30.26,North,360,2.0,6.0,88,0.00,,,0.00,Weather View 32 v70,2013-08-03 10:18:00,
2013-08-03 05:23:00,62.1,58.5,30.26,North,360,2.0,6.0,88,0.00,,,0.00,Weather View 32 v70,2013-08-03 10:23:00,
2013-08-03 05:28:00,61.8,58.5,30.26,North,360,1.0,6.0,89,0.00,,,0.00,Weather View 32 v70,2013-08-03 10:28:00,
2013-08-03 05:33:00,61.5,58.2,30.26,North,360,0.0,6.0,89,0.01,,,0.00,Weather View 32 v70,2013-08-03 10:33:00,
2013-08-03 05:38:00,61.2,59.8,30.26,West,270,1.0,6.0,95,0.00,,,0.00,Weather View 32 v70,2013-08-03 10:38:00,
2013-08-03 05:43:00,60.8,59.4,30.27,West,270,0.0,6.0,95,0.00,,,0.00,Weather View 32 v70,2013-08-03 10:43:00,
2013-08-03 05:48:00,60.3,59.4,30.27,West,270,1.0,6.0,97,0.00,,,0.00,Weather View 32 v70,2013-08-03 10:48:00,
2013-08-03 05:53:00,60.0,59.4,30.27,West,270,2.0,6.0,98,0.00,,,0.00,Weather View 32 v70,2013-08-03 10:53:00,
2013-08-03 05:58:00,59.8,59.2,30.27,WSW,247,2.0,6.0,98,0.00,,,0.00,Weather View 32 v70,2013-08-03 10:58:00,
2013-08-03 06:03:00,59.7,59.1,30.28,WSW,247,1.0,6.0,98,0.00,,,0.00,Weather View 32 v70,2013-08-03 11:03:00,
2013-08-03 06:08:00,59.7,59.1,30.28,SW,225,1.0,6.0,98,0.00,,,0.00,Weather View 32 v70,2013-08-03 11:08:00,
2013-08-03 06:13:00,59.7,59.1,30.28,SW,225,2.0,6.0,98,0.00,,,0.00,Weather View 32 v70,2013-08-03 11:13:00,
2013-08-03 06:18:00,59.6,59.0,30.28,WSW,247,2.0,3.0,98,0.00,,,0.00,Weather View 32 v70,2013-08-03 11:18:00,
2013-08-03 06:23:00,59.6,59.0,30.28,WSW,247,1.0,2.0,98,0.00,,,0.00,Weather View 32 v70,2013-08-03 11:23:00,
2013-08-03 06:28:00,59.7,59.1,30.28,WSW,247,0.0,2.0,98,0.00,,,0.00,Weather View 32 v70,2013-08-03 11:28:00,
2013-08-03 06:33:00,59.9,59.3,30.28,WSW,247,0.0,2.0,98,0.00,,,0.00,Weather View 32 v70,2013-08-03 11:33:00,
2013-08-03 06:38:00,59.9,59.3,30.28,NW,315,1.0,2.0,98,0.00,,,0.00,Weather View 32 v70,2013-08-03 11:38:00,
2013-08-03 06:43:00,59.9,59.3,30.28,NW,315,0.0,2.0,98,0.00,,,0.00,Weather View 32 v70,2013-08-03 11:43:00,
2013-08-03 06:48:00,59.9,59.3,30.28,NW,315,1.0,2.0,98,0.00,,,0.00,Weather View 32 v70,2013-08-03 11:48:00,
2013-08-03 06:53:00,59.9,59.3,30.28,NW,315,2.0,4.0,98,0.00,,,0.00,Weather View 32 v70,2013-08-03 11:53:00,
2013-08-03 06:58:00,59.9,59.3,30.28,NW,315,2.0,4.0,98,0.00,,,0.00,Weather View 32 v70,2013-08-03 11:58:00,
2013-08-03 07:03:00,59.9,59.3,30.28,NW,315,2.0,4.0,98,0.00,,,0.00,Weather View 32 v70,2013-08-03 12:03:00,
2013-08-03 07:08:00,59.9,59.3,30.29,NW,315,0.0,4.0,98,0.00,,,0.00,Weather View 32 v70,2013-08-03 12:08:00,
2013-08-03 07:13:00,59.9,59.3,30.28,North,360,1.0,4.0,98,0.00,,,0.00,Weather View 32 v70,2013-08-03 12:13:00,
2013-08-03 07:18:00,59.9,59.3,30.29,North,360,1.0,4.0,98,0.00,,,0.00,Weather View 32 v70,2013-08-03 12:18:00,
2013-08-03 07:23:00,60.1,59.2,30.29,North,360,0.0,4.0,97,0.00,,,0.00,Weather View 32 v70,2013-08-03 12:23:00,
2013-08-03 07:28:00,60.4,59.2,30.29,North,360,2.0,4.0,96,0.00,,,0.00,Weather View 32 v70,2013-08-03 12:28:00,
2013-08-03 07:33:00,60.8,59.6,30.29,North,360,1.0,4.0,96,0.00,,,0.00,Weather View 32 v70,2013-08-03 12:33:00,
2013-08-03 07:38:00,61.2,59.8,30.29,North,360,2.0,4.0,95,0.00,,,0.00,Weather View 32 v70,2013-08-03 12:38:00,
2013-08-03 07:43:00,61.6,59.8,30.30,North,360,0.0,4.0,94,0.00,,,0.00,Weather View 32 v70,2013-08-03 12:43:00,
2013-08-03 07:48:00,61.9,59.8,30.30,North,360,0.0,4.0,93,0.00,,,0.00,Weather View 32 v70,2013-08-03 12:48:00,
2013-08-03 07:53:00,62.4,60.0,30.30,North,360,1.0,4.0,92,0.00,,,0.00,Weather View 32 v70,2013-08-03 12:53:00,
2013-08-03 07:58:00,62.8,60.7,30.31,NW,315,3.0,4.0,93,0.00,,,0.00,Weather View 32 v70,2013-08-03 12:58:00,
2013-08-03 08:03:00,62.9,60.8,30.31,NW,315,2.0,6.0,93,0.00,,,0.00,Weather View 32 v70,2013-08-03 13:03:00,
2013-08-03 08:08:00,63.1,60.7,30.31,NW,315,2.0,6.0,92,0.00,,,0.00,Weather View 32 v70,2013-08-03 13:08:00,
2013-08-03 08:13:00,63.3,60.6,30.31,NW,315,2.0,6.0,91,0.00,,,0.00,Weather View 32 v70,2013-08-03 13:13:00,
2013-08-03 08:18:00,63.5,61.1,30.31,NW,315,1.0,6.0,92,0.00,,,0.00,Weather View 32 v70,2013-08-03 13:18:00,
2013-08-03 08:24:00,63.7,61.3,30.31,NW,315,2.0,6.0,92,0.00,,,0.00,Weather View 32 v70,2013-08-03 13:24:00,
2013-08-03 08:29:00,63.9,61.5,30.31,WNW,292,1.0,6.0,92,0.00,,,0.00,Weather View 32 v70,2013-08-03 13:29:00,
2013-08-03 08:34:00,63.9,61.2,30.31,WNW,292,1.0,6.0,91,0.00,,,0.00,Weather View 32 v70,2013-08-03 13:34:00,
2013-08-03 08:39:00,63.9,61.2,30.32,WSW,247,2.0,6.0,91,0.00,,,0.00,Weather View 32 v70,2013-08-03 13:39:00,
2013-08-03 08:44:00,63.9,61.2,30.32,West,270,1.0,6.0,91,0.00,,,0.00,Weather View 32 v70,2013-08-03 13:44:00,
2013-08-03 08:49:00,63.9,60.9,30.32,West,270,1.0,6.0,90,0.00,,,0.00,Weather View 32 v70,2013-08-03 13:49:00,
2013-08-03 08:54:00,64.1,61.4,30.32,WNW,292,1.0,6.0,91,0.00,,,0.00,Weather View 32 v70,2013-08-03 13:54:00,
2013-08-03 08:59:00,64.4,61.1,30.32,NW,315,1.0,6.0,89,0.00,,,0.00,Weather View 32 v70,2013-08-03 13:59:00,
2013-08-03 09:04:00,64.7,61.4,30.33,NW,315,1.0,5.0,89,0.00,,,0.00,Weather View 32 v70,2013-08-03 14:04:00,
2013-08-03 09:09:00,65.1,61.4,30.33,NW,315,2.0,4.0,88,0.00,,,0.00,Weather View 32 v70,2013-08-03 14:09:00,
2013-08-03 09:14:00,65.5,61.5,30.33,NW,315,2.0,4.0,87,0.00,,,0.00,Weather View 32 v70,2013-08-03 14:14:00,
2013-08-03 09:19:00,65.9,61.6,30.33,NW,315,1.0,4.0,86,0.00,,,0.00,Weather View 32 v70,2013-08-03 14:19:00,
2013-08-03 09:24:00,66.4,62.1,30.33,West,270,2.0,4.0,86,0.00,,,0.00,Weather View 32 v70,2013-08-03 14:24:00,
2013-08-03 09:29:00,66.7,62.0,30.34,WNW,292,1.0,4.0,85,0.00,,,0.00,Weather View 32 v70,2013-08-03 14:29:00,
2013-08-03 09:34:00,67.3,62.6,30.33,WNW,292,0.0,4.0,85,0.00,,,0.00,Weather View 32 v70,2013-08-03 14:34:00,
2013-08-03 09:39:00,67.9,61.5,30.33,NNW,337,0.0,4.0,80,0.00,,,0.00,Weather View 32 v70,2013-08-03 14:39:00,
2013-08-03 09:44:00,68.9,61.4,30.33,NNW,337,0.0,4.0,77,0.00,,,0.00,Weather View 32 v70,2013-08-03 14:44:00,
2013-08-03 09:49:00,69.8,61.5,30.33,NNW,337,1.0,4.0,75,0.00,,,0.00,Weather View 32 v70,2013-08-03 14:49:00,
2013-08-03 09:54:00,70.1,60.2,30.33,North,360,0.0,4.0,71,0.00,,,0.00,Weather View 32 v70,2013-08-03 14:54:00,
2013-08-03 09:59:00,70.4,58.9,30.33,North,360,2.0,4.0,67,0.00,,,0.00,Weather View 32 v70,2013-08-03 14:59:00,
2013-08-03 10:04:00,70.6,59.1,30.34,North,360,2.0,4.0,67,0.00,,,0.00,Weather View 32 v70,2013-08-03 15:04:00,
2013-08-03 10:09:00,70.7,59.2,30.34,North,360,0.0,3.0,67,0.00,,,0.00,Weather View 32 v70,2013-08-03 15:09:00,
2013-08-03 10:14:00,70.9,59.8,30.34,North,360,0.0,3.0,68,0.00,,,0.00,Weather View 32 v70,2013-08-03 15:14:00,
2013-08-03 10:19:00,71.1,58.7,30.34,SE,135,0.0,3.0,65,0.00,,,0.00,Weather View 32 v70,2013-08-03 15:19:00,
2013-08-03 10:24:00,71.6,58.7,30.35,North,360,0.0,3.0,64,0.00,,,0.00,Weather View 32 v70,2013-08-03 15:24:00,
2013-08-03 10:29:00,71.9,58.6,30.35,North,360,0.0,3.0,63,0.00,,,0.00,Weather View 32 v70,2013-08-03 15:29:00,
2013-08-03 10:34:00,72.0,57.3,30.35,NE,45,2.0,4.0,60,0.00,,,0.00,Weather View 32 v70,2013-08-03 15:34:00,
2013-08-03 10:39:00,72.3,58.5,30.35,NE,45,0.0,4.0,62,0.00,,,0.00,Weather View 32 v70,2013-08-03 15:39:00,
2013-08-03 10:44:00,72.9,59.1,30.35,NE,45,1.0,4.0,62,0.00,,,0.00,Weather View 32 v70,2013-08-03 15:44:00,
2013-08-03 10:49:00,73.2,58.4,30.36,North,360,0.0,4.0,60,0.00,,,0.00,Weather View 32 v70,2013-08-03 15:49:00,
2013-08-03 10:50:00,73.3,59.0,30.36,North,360,1.0,4.0,61,0.00,,,0.00,Weather View 32 v70,2013-08-03 15:50:00,
2013-08-03 10:55:00,73.3,59.5,30.36,North,360,0.0,4.0,62,0.00,,,0.00,Weather View 32 v70,2013-08-03 15:55:00,
2013-08-03 11:00:00,73.2,57.5,30.36,North,360,0.0,4.0,58,0.00,,,0.00,Weather View 32 v70,2013-08-03 16:00:00,
2013-08-03 11:05:00,72.8,57.1,30.36,NNE,22,1.0,4.0,58,0.00,,,0.00,Weather View 32 v70,2013-08-03 16:05:00,
2013-08-03 11:10:00,72.7,57.0,30.36,NNE,22,0.0,4.0,58,0.00,,,0.00,Weather View 32 v70,2013-08-03 16:10:00,
2013-08-03 11:15:00,72.5,56.8,30.36,NNE,22,0.0,4.0,58,0.00,,,0.00,Weather View 32 v70,2013-08-03 16:15:00,
2013-08-03 11:20:00,72.6,56.9,30.36,NNE,22,1.0,4.0,58,0.00,,,0.00,Weather View 32 v70,2013-08-03 16:20:00,
2013-08-03 11:25:00,72.7,58.4,30.36,NNE,22,0.0,4.0,61,0.00,,,0.00,Weather View 32 v70,2013-08-03 16:25:00,
2013-08-03 11:30:00,72.9,57.7,30.37,NNE,22,0.0,4.0,59,0.00,,,0.00,Weather View 32 v70,2013-08-03 16:30:00,
2013-08-03 11:35:00,72.9,57.2,30.37,NNE,22,0.0,4.0,58,0.00,,,0.00,Weather View 32 v70,2013-08-03 16:35:00,
2013-08-03 11:40:00,73.1,58.3,30.37,NNE,22,0.0,4.0,60,0.00,,,0.00,Weather View 32 v70,2013-08-03 16:40:00,
2013-08-03 11:45:00,73.3,58.1,30.37,NNE,22,0.0,4.0,59,0.00,,,0.00,Weather View 32 v70,2013-08-03 16:45:00,
2013-08-03 11:50:00,73.5,58.2,30.37,NNE,22,0.0,4.0,59,0.00,,,0.00,Weather View 32 v70,2013-08-03 16:50:00,
2013-08-03 11:55:00,73.5,56.8,30.37,North,360,0.0,4.0,56,0.00,,,0.00,Weather View 32 v70,2013-08-03 16:55:00,
2013-08-03 12:00:00,73.8,58.0,30.38,North,360,0.0,4.0,58,0.00,,,0.00,Weather View 32 v70,2013-08-03 17:00:00,
2013-08-03 12:05:00,73.9,57.2,30.38,North,360,0.0,3.0,56,0.00,,,0.00,Weather View 32 v70,2013-08-03 17:05:00,
2013-08-03 12:10:00,74.2,57.4,30.39,North,360,0.0,3.0,56,0.00,,,0.00,Weather View 32 v70,2013-08-03 17:10:00,
2013-08-03 12:15:00,74.2,57.4,30.38,ESE,112,2.0,3.0,56,0.00,,,0.00,Weather View 32 v70,2013-08-03 17:15:00,
2013-08-03 12:20:00,74.1,58.8,30.37,ESE,112,0.0,3.0,59,0.00,,,0.00,Weather View 32 v70,2013-08-03 17:20:00,
2013-08-03 12:25:00,74.2,56.9,30.37,ESE,112,1.0,3.0,55,0.00,,,0.00,Weather View 32 v70,2013-08-03 17:25:00,
2013-08-03 12:30:00,73.7,57.0,30.37,ESE,112,0.0,3.0,56,0.00,,,0.00,Weather View 32 v70,2013-08-03 17:30:00,
2013-08-03 12:35:00,73.7,57.0,30.37,ESE,112,0.0,3.0,56,0.00,,,0.00,Weather View 32 v70,2013-08-03 17:35:00,
2013-08-03 12:40:00,73.6,57.9,30.38,ESE,112,0.0,3.0,58,0.00,,,0.00,Weather View 32 v70,2013-08-03 17:40:00,
2013-08-03 12:45:00,73.6,57.9,30.38,ESE,112,0.0,3.0,58,0.00,,,0.00,Weather View 32 v70,2013-08-03 17:45:00,
2013-08-03 12:50:00,73.5,56.8,30.38,South,180,0.0,3.0,56,0.00,,,0.00,Weather View 32 v70,2013-08-03 17:50:00,
2013-08-03 12:55:00,72.9,57.7,30.38,NE,45,1.0,4.0,59,0.94,,,0.00,Weather View 32 v70,2013-08-03 17:55:00,
2013-08-03 13:00:00,72.7,58.0,30.36,East,90,2.0,4.0,60,0.00,,,0.00,Weather View 32 v70,2013-08-03 18:00:00,
2013-08-03 13:05:00,72.2,54.6,30.35,SE,135,1.0,6.0,54,0.00,,,0.00,Weather View 32 v70,2013-08-03 18:05:00,
2013-08-03 13:10:00,72.4,56.3,30.35,NE,45,1.0,6.0,57,0.00,,,0.00,Weather View 32 v70,2013-08-03 18:10:00,
2013-08-03 13:15:00,72.5,56.4,30.36,NE,45,2.0,6.0,57,0.00,,,0.00,Weather View 32 v70,2013-08-03 18:15:00,
2013-08-03 13:20:00,72.8,57.1,30.35,North,360,1.0,6.0,58,0.00,,,0.00,Weather View 32 v70,2013-08-03 18:20:00,
2013-08-03 13:25:00,72.9,56.7,30.35,NE,45,2.0,6.0,57,0.00,,,0.00,Weather View 32 v70,2013-08-03 18:25:00,
2013-08-03 13:30:00,72.8,58.1,30.35,NE,45,0.0,6.0,60,0.00,,,0.00,Weather View 32 v70,2013-08-03 18:30:00,
2013-08-03 13:35:00,72.9,58.6,30.34,NE,45,2.0,6.0,61,0.00,,,0.00,Weather View 32 v70,2013-08-03 18:35:00,
2013-08-03 13:40:00,72.9,58.6,30.34,NE,45,2.0,6.0,61,0.00,,,0.00,Weather View 32 v70,2013-08-03 18:40:00,
2013-08-03 13:45:00,73.5,58.7,30.35,East,90,1.0,6.0,60,0.00,,,0.00,Weather View 32 v70,2013-08-03 18:45:00,
2013-08-03 13:50:00,73.9,59.1,30.35,ESE,112,0.0,6.0,60,0.00,,,0.00,Weather View 32 v70,2013-08-03 18:50:00,
2013-08-03 13:56:00,74.1,58.8,30.35,NE,45,2.0,6.0,59,0.00,,,0.00,Weather View 32 v70,2013-08-03 18:56:00,
2013-08-03 14:01:00,75.0,58.2,30.35,SSE,157,0.0,6.0,56,0.00,,,0.00,Weather View 32 v70,2013-08-03 19:01:00,
2013-08-03 14:06:00,75.2,59.4,30.35,North,360,0.0,6.0,58,0.00,,,0.00,Weather View 32 v70,2013-08-03 19:06:00,
2013-08-03 14:11:00,75.4,57.5,30.37,North,360,2.0,6.0,54,0.00,,,0.00,Weather View 32 v70,2013-08-03 19:11:00,
2013-08-03 14:16:00,75.6,58.2,30.37,East,90,0.0,6.0,55,0.00,,,0.00,Weather View 32 v70,2013-08-03 19:16:00,
2013-08-03 14:21:00,75.6,56.1,30.37,East,90,2.0,6.0,51,0.00,,,0.00,Weather View 32 v70,2013-08-03 19:21:00,
2013-08-03 14:26:00,75.8,56.9,30.36,East,90,2.0,6.0,52,0.00,,,0.00,Weather View 32 v70,2013-08-03 19:26:00,
2013-08-03 14:31:00,76.7,57.7,30.37,SSE,157,0.0,6.0,52,0.00,,,0.00,Weather View 32 v70,2013-08-03 19:31:00,
2013-08-03 14:36:00,76.5,55.9,30.37,ESE,112,1.0,6.0,49,0.00,,,0.00,Weather View 32 v70,2013-08-03 19:36:00,
2013-08-03 14:41:00,76.9,57.3,30.37,NE,45,1.0,6.0,51,0.00,,,0.00,Weather View 32 v70,2013-08-03 19:41:00,
2013-08-03 14:46:00,76.8,57.8,30.36,NNE,22,0.0,6.0,52,0.00,,,0.00,Weather View 32 v70,2013-08-03 19:46:00,
2013-08-03 14:51:00,76.6,56.5,30.36,NNE,22,0.0,6.0,50,0.00,,,0.00,Weather View 32 v70,2013-08-03 19:51:00,
2013-08-03 14:56:00,76.9,59.4,30.36,North,360,0.0,5.0,55,0.00,,,0.00,Weather View 32 v70,2013-08-03 19:56:00,
2013-08-03 15:01:00,77.1,58.1,30.37,NNE,22,3.0,5.0,52,0.00,,,0.00,Weather View 32 v70,2013-08-03 20:01:00,
2013-08-03 15:06:00,76.8,58.3,30.36,North,360,1.0,4.0,53,0.00,,,0.00,Weather View 32 v70,2013-08-03 20:06:00,
2013-08-03 15:11:00,76.5,60.1,30.36,North,360,1.0,4.0,57,0.00,,,0.00,Weather View 32 v70,2013-08-03 20:11:00,
2013-08-03 15:16:00,75.7,57.8,30.36,WNW,292,2.0,4.0,54,0.00,,,0.00,Weather View 32 v70,2013-08-03 20:16:00,
2013-08-03 15:21:00,75.3,58.0,30.36,NW,315,1.0,4.0,55,0.00,,,0.00,Weather View 32 v70,2013-08-03 20:21:00,
2013-08-03 15:26:00,75.5,58.7,30.36,West,270,2.0,4.0,56,0.00,,,0.00,Weather View 32 v70,2013-08-03 20:26:00,
2013-08-03 15:32:00,75.5,57.6,30.36,NE,45,4.0,4.0,54,0.00,,,0.00,Weather View 32 v70,2013-08-03 20:32:00,
2013-08-03 15:37:00,75.9,58.5,30.36,NE,45,0.0,4.0,55,0.00,,,0.00,Weather View 32 v70,2013-08-03 20:37:00,
2013-08-03 15:42:00,76.4,57.9,30.36,NE,45,1.0,4.0,53,0.00,,,0.00,Weather View 32 v70,2013-08-03 20:42:00,
2013-08-03 15:47:00,77.6,59.6,30.36,NE,45,1.0,4.0,54,0.00,,,0.00,Weather View 32 v70,2013-08-03 20:47:00,
2013-08-03 15:52:00,77.3,57.1,30.36,NE,45,2.0,4.0,50,0.00,,,0.00,Weather View 32 v70,2013-08-03 20:52:00,
2013-08-03 15:57:00,76.8,57.8,30.36,North,360,0.0,4.0,52,0.00,,,0.00,Weather View 32 v70,2013-08-03 20:57:00,
2013-08-03 16:02:00,76.9,58.4,30.35,North,360,0.0,4.0,53,0.00,,,0.00,Weather View 32 v70,2013-08-03 21:02:00,
2013-08-03 16:09:00,75.8,58.9,30.35,NE,45,4.0,6.0,56,0.00,,,0.00,Weather View 32 v70,2013-08-03 21:09:00,
2013-08-03 16:14:00,75.1,58.3,30.35,NE,45,2.0,6.0,56,0.00,,,0.00,Weather View 32 v70,2013-08-03 21:14:00,
2013-08-03 16:19:00,75.2,58.9,30.35,NNE,22,4.0,6.0,57,0.00,,,0.00,Weather View 32 v70,2013-08-03 21:19:00,
2013-08-03 16:24:00,75.1,57.8,30.35,NE,45,2.0,9.0,55,0.00,,,0.00,Weather View 32 v70,2013-08-03 21:24:00,
2013-08-03 16:29:00,75.8,58.4,30.35,NE,45,4.0,9.0,55,0.00,,,0.00,Weather View 32 v70,2013-08-03 21:29:00,
2013-08-03 16:34:00,76.3,58.9,30.34,NNE,22,1.0,9.0,55,0.00,,,0.00,Weather View 32 v70,2013-08-03 21:34:00,
2013-08-03 16:39:00,76.5,57.0,30.34,SE,135,0.0,9.0,51,0.00,,,0.00,Weather View 32 v70,2013-08-03 21:39:00,
2013-08-03 16:44:00,77.6,60.1,30.34,East,90,1.0,9.0,55,0.00,,,0.00,Weather View 32 v70,2013-08-03 21:44:00,
2013-08-03 16:49:00,77.8,57.6,30.35,North,360,1.0,9.0,50,0.00,,,0.00,Weather View 32 v70,2013-08-03 21:49:00,
2013-08-03 16:54:00,77.8,58.7,30.35,NE,45,3.0,9.0,52,0.00,,,0.00,Weather View 32 v70,2013-08-03 21:54:00,
2013-08-03 16:59:00,78.2,58.5,30.35,NE,45,2.0,9.0,51,0.00,,,0.00,Weather View 32 v70,2013-08-03 21:59:00,
2013-08-03 17:04:00,78.5,59.3,30.35,North,360,2.0,9.0,52,0.00,,,0.00,Weather View 32 v70,2013-08-03 22:04:00,
2013-08-03 17:09:00,78.2,58.0,30.35,NE,45,4.0,9.0,50,0.00,,,0.00,Weather View 32 v70,2013-08-03 22:09:00,
2013-08-03 17:14:00,78.2,58.0,30.35,NE,45,2.0,9.0,50,0.00,,,0.00,Weather View 32 v70,2013-08-03 22:14:00,
2013-08-03 17:19:00,78.4,57.0,30.35,NNE,22,0.0,9.0,48,0.00,,,0.00,Weather View 32 v70,2013-08-03 22:19:00,
2013-08-03 17:24:00,78.3,57.5,30.35,NNE,22,5.0,8.0,49,0.00,,,0.00,Weather View 32 v70,2013-08-03 22:24:00,
2013-08-03 17:29:00,77.9,57.1,30.35,NNE,22,2.0,8.0,49,0.00,,,0.00,Weather View 32 v70,2013-08-03 22:29:00,
2013-08-03 17:34:00,78.0,56.7,30.35,North,360,2.0,7.0,48,0.00,,,0.00,Weather View 32 v70,2013-08-03 22:34:00,
2013-08-03 17:39:00,78.4,57.6,30.35,NNE,22,2.0,7.0,49,0.00,,,0.00,Weather View 32 v70,2013-08-03 22:39:00,
2013-08-03 17:44:00,78.7,56.7,30.35,North,360,1.0,7.0,47,0.00,,,0.00,Weather View 32 v70,2013-08-03 22:44:00,
2013-08-03 17:49:00,78.7,57.3,30.35,NE,45,2.0,7.0,48,0.00,,,0.00,Weather View 32 v70,2013-08-03 22:49:00,
2013-08-03 17:54:00,77.9,55.4,30.35,NE,45,2.0,7.0,46,0.00,,,0.00,Weather View 32 v70,2013-08-03 22:54:00,
2013-08-03 17:59:00,77.5,56.2,30.35,North,360,3.0,7.0,48,0.00,,,0.00,Weather View 32 v70,2013-08-03 22:59:00,
2013-08-03 18:04:00,77.7,56.4,30.35,NNE,22,0.0,7.0,48,0.00,,,0.00,Weather View 32 v70,2013-08-03 23:04:00,
2013-08-03 18:09:00,77.5,56.2,30.35,NE,45,0.0,7.0,48,0.00,,,0.00,Weather View 32 v70,2013-08-03 23:09:00,
2013-08-03 18:14:00,78.2,56.3,30.35,East,90,0.0,7.0,47,0.00,,,0.00,Weather View 32 v70,2013-08-03 23:14:00,
2013-08-03 18:19:00,78.7,56.7,30.35,North,360,0.0,7.0,47,0.00,,,0.00,Weather View 32 v70,2013-08-03 23:19:00,
2013-08-03 18:24:00,79.4,56.7,30.35,NE,45,2.0,7.0,46,0.00,,,0.00,Weather View 32 v70,2013-08-03 23:24:00,
2013-08-03 18:29:00,78.5,55.9,30.35,NE,45,2.0,7.0,46,0.00,,,0.00,Weather View 32 v70,2013-08-03 23:29:00,
2013-08-03 18:34:00,77.7,55.8,30.35,NE,45,2.0,7.0,47,0.00,,,0.00,Weather View 32 v70,2013-08-03 23:34:00,
2013-08-03 18:39:00,77.2,55.3,30.35,NNE,22,1.0,7.0,47,0.00,,,0.00,Weather View 32 v70,2013-08-03 23:39:00,
2013-08-03 18:44:00,77.6,56.9,30.35,NNE,22,0.0,7.0,49,0.00,,,0.00,Weather View 32 v70,2013-08-03 23:44:00,
2013-08-03 18:49:00,77.7,56.4,30.35,NNE,22,2.0,7.0,48,0.00,,,0.00,Weather View 32 v70,2013-08-03 23:49:00,
2013-08-03 18:54:00,77.7,57.0,30.35,ENE,67,0.0,6.0,49,0.00,,,0.00,Weather View 32 v70,2013-08-03 23:54:00,
2013-08-03 19:00:00,77.7,56.4,30.35,NE,45,1.0,6.0,48,0.00,,,0.00,Weather View 32 v70,2013-08-04 00:00:00,
2013-08-03 19:05:00,77.7,55.8,30.35,NE,45,2.0,6.0,47,0.00,,,0.00,Weather View 32 v70,2013-08-04 00:05:00,
2013-08-03 19:10:00,77.4,56.1,30.35,NNE,22,1.0,6.0,48,0.00,,,0.00,Weather View 32 v70,2013-08-04 00:10:00,
2013-08-03 19:15:00,77.2,55.9,30.35,NNE,22,2.0,6.0,48,0.00,,,0.00,Weather View 32 v70,2013-08-04 00:15:00,
2013-08-03 19:20:00,76.7,54.9,30.35,NNE,22,1.0,6.0,47,0.00,,,0.00,Weather View 32 v70,2013-08-04 00:20:00,
2013-08-03 19:25:00,76.8,56.1,30.36,North,360,2.0,6.0,49,0.00,,,0.00,Weather View 32 v70,2013-08-04 00:25:00,
2013-08-03 19:29:00,76.5,55.9,30.36,NNE,22,1.0,6.0,49,0.00,,,0.00,Weather View 32 v70,2013-08-04 00:29:00,
2013-08-03 19:34:00,76.3,56.8,30.36,NNE,22,0.0,6.0,51,0.00,,,0.00,Weather View 32 v70,2013-08-04 00:34:00,
2013-08-03 19:40:00,76.1,57.1,30.36,NNE,22,0.0,6.0,52,0.00,,,0.00,Weather View 32 v70,2013-08-04 00:40:00,
2013-08-03 19:45:00,75.9,56.4,30.35,NNE,22,1.0,6.0,51,0.00,,,0.00,Weather View 32 v70,2013-08-04 00:45:00,
2013-08-03 19:50:00,75.9,57.0,30.35,NNE,22,1.0,6.0,52,0.00,,,0.00,Weather View 32 v70,2013-08-04 00:50:00,
2013-08-03 19:55:00,75.7,56.8,30.35,NNE,22,0.0,4.0,52,0.00,,,0.00,Weather View 32 v70,2013-08-04 00:55:00,
2013-08-03 20:00:00,75.6,56.7,30.36,NNE,22,2.0,4.0,52,0.00,,,0.00,Weather View 32 v70,2013-08-04 01:00:00,
2013-08-03 20:05:00,75.3,56.9,30.35,NNE,22,1.0,4.0,53,0.00,,,0.00,Weather View 32 v70,2013-08-04 01:05:00,
2013-08-03 20:10:00,75.0,56.7,30.35,NNE,22,0.0,3.0,53,0.00,,,0.00,Weather View 32 v70,2013-08-04 01:10:00,
2013-08-03 20:15:00,74.8,56.5,30.35,NNE,22,0.0,3.0,53,0.00,,,0.00,Weather View 32 v70,2013-08-04 01:15:00,
2013-08-03 20:20:00,74.2,56.9,30.35,NNE,22,0.0,3.0,55,0.00,,,0.00,Weather View 32 v70,2013-08-04 01:20:00,
2013-08-03 20:25:00,73.6,56.9,30.35,NNE,22,0.0,3.0,56,0.00,,,0.00,Weather View 32 v70,2013-08-04 01:25:00,
2013-08-03 20:30:00,72.8,56.6,30.35,NNE,22,0.0,3.0,57,0.00,,,0.00,Weather View 32 v70,2013-08-04 01:30:00,
2013-08-03 20:35:00,71.9,56.7,30.35,NNE,22,0.0,3.0,59,0.00,,,0.00,Weather View 32 v70,2013-08-04 01:35:00,
2013-08-03 20:40:00,71.2,56.6,30.35,NNE,22,0.0,2.0,60,0.00,,,0.00,Weather View 32 v70,2013-08-04 01:40:00,
2013-08-03 20:45:00,70.5,57.3,30.35,NNE,22,0.0,2.0,63,0.00,,,0.00,Weather View 32 v70,2013-08-04 01:45:00,
2013-08-03 20:50:00,69.9,58.4,30.35,NNE,22,0.0,2.0,67,0.00,,,0.00,Weather View 32 v70,2013-08-04 01:50:00,
2013-08-03 20:55:00,69.2,58.2,30.35,NNE,22,0.0,2.0,68,0.00,,,0.00,Weather View 32 v70,2013-08-04 01:55:00,
2013-08-03 21:00:00,68.7,58.1,30.35,NNE,22,0.0,2.0,69,0.00,,,0.00,Weather View 32 v70,2013-08-04 02:00:00,
2013-08-03 21:05:00,68.1,57.5,30.35,NNE,22,0.0,2.0,69,0.00,,,0.00,Weather View 32 v70,2013-08-04 02:05:00,
2013-08-03 21:10:00,67.7,57.5,30.35,NNE,22,0.0,0.0,70,0.00,,,0.00,Weather View 32 v70,2013-08-04 02:10:00,
2013-08-03 21:15:00,67.4,58.0,30.36,NNE,22,0.0,1.0,72,0.00,,,0.00,Weather View 32 v70,2013-08-04 02:15:00,
2013-08-03 21:20:00,67.1,59.3,30.36,NNE,22,0.0,1.0,76,0.00,,,0.00,Weather View 32 v70,2013-08-04 02:20:00,
2013-08-03 21:25:00,66.8,59.7,30.36,NNE,22,0.0,2.0,78,0.00,,,0.00,Weather View 32 v70,2013-08-04 02:25:00,
2013-08-03 21:30:00,66.4,60.4,30.36,NNE,22,2.0,2.0,81,0.00,,,0.00,Weather View 32 v70,2013-08-04 02:30:00,
2013-08-03 21:35:00,65.9,59.9,30.36,NNE,22,2.0,2.0,81,0.00,,,0.00,Weather View 32 v70,2013-08-04 02:35:00,
2013-08-03 21:40:00,65.5,59.8,30.36,NNE,22,2.0,2.0,82,0.00,,,0.00,Weather View 32 v70,2013-08-04 02:40:00,
2013-08-03 21:45:00,65.0,59.7,30.36,NNE,22,2.0,2.0,83,0.00,,,0.00,Weather View 32 v70,2013-08-04 02:45:00,
2013-08-03 21:50:00,64.7,59.4,30.36,NNE,22,2.0,2.0,83,0.00,,,0.00,Weather View 32 v70,2013-08-04 02:50:00,
2013-08-03 21:55:00,64.4,59.1,30.36,NNE,22,0.0,2.0,83,0.00,,,0.00,Weather View 32 v70,2013-08-04 02:55:00,
2013-08-03 22:00:00,64.2,58.9,30.36,NNE,22,1.0,2.0,83,0.00,,,0.00,Weather View 32 v70,2013-08-04 03:00:00,
2013-08-03 22:05:00,63.9,59.0,30.36,NNE,22,2.0,2.0,84,0.00,,,0.00,Weather View 32 v70,2013-08-04 03:05:00,
2013-08-03 22:10:00,63.7,58.8,30.37,NNE,22,1.0,2.0,84,0.00,,,0.00,Weather View 32 v70,2013-08-04 03:10:00,
2013-08-03 22:15:00,63.6,59.0,30.37,NNE,22,0.0,2.0,85,0.00,,,0.00,Weather View 32 v70,2013-08-04 03:15:00,
2013-08-03 22:20:00,63.4,59.5,30.37,NNE,22,0.0,2.0,87,0.00,,,0.00,Weather View 32 v70,2013-08-04 03:20:00,
2013-08-03 22:25:00,63.5,59.5,30.37,NNE,22,0.0,2.0,87,0.00,,,0.00,Weather View 32 v70,2013-08-04 03:25:00,
2013-08-03 22:30:00,63.5,58.9,30.37,NNE,22,1.0,2.0,85,0.00,,,0.00,Weather View 32 v70,2013-08-04 03:30:00,
2013-08-03 22:35:00,63.4,58.8,30.37,NNE,22,0.0,2.0,85,0.00,,,0.00,Weather View 32 v70,2013-08-04 03:35:00,
2013-08-03 22:40:00,63.3,59.0,30.37,NNE,22,0.0,2.0,86,0.00,,,0.00,Weather View 32 v70,2013-08-04 03:40:00,
2013-08-03 22:45:00,63.0,59.4,30.37,NNE,22,0.0,2.0,88,0.00,,,0.00,Weather View 32 v70,2013-08-04 03:45:00,
2013-08-03 22:50:00,62.9,59.6,30.37,NNE,22,1.0,2.0,89,1.27,,,0.00,Weather View 32 v70,2013-08-04 03:50:00,
2013-08-03 22:55:00,62.9,59.3,30.37,NNE,22,1.0,2.0,88,1.27,,,0.00,Weather View 32 v70,2013-08-04 03:55:00,
2013-08-03 23:00:00,62.7,59.1,30.37,NNE,22,1.0,2.0,88,0.00,,,0.00,Weather View 32 v70,2013-08-04 04:00:00,
2013-08-03 23:01:00,62.7,59.1,30.37,NNE,22,1.0,2.0,88,0.00,,,0.00,Weather View 32 v70,2013-08-04 04:01:00,
2013-08-03 23:02:00,62.9,59.0,30.37,NNE,22,1.0,2.0,87,0.00,,,0.00,Weather View 32 v70,2013-08-04 04:02:00,
2013-08-03 23:07:00,62.8,59.2,30.37,NNE,22,2.0,2.0,88,0.00,,,0.00,Weather View 32 v70,2013-08-04 04:07:00,
2013-08-03 23:12:00,62.7,58.8,30.37,NNE,22,1.0,2.0,87,0.00,,,0.00,Weather View 32 v70,2013-08-04 04:12:00,
2013-08-03 23:17:00,62.4,57.8,30.37,NNE,22,2.0,2.0,85,0.00,,,0.00,Weather View 32 v70,2013-08-04 04:17:00,
2013-08-03 23:22:00,62.1,57.2,30.37,NNE,22,2.0,2.0,84,0.00,,,0.00,Weather View 32 v70,2013-08-04 04:22:00,
2013-08-03 23:27:00,61.9,57.3,30.37,NNE,22,2.0,2.0,85,0.00,,,0.00,Weather View 32 v70,2013-08-04 04:27:00,
2013-08-03 23:32:00,61.7,57.1,30.37,NNE,22,1.0,2.0,85,0.00,,,0.00,Weather View 32 v70,2013-08-04 04:32:00,
2013-08-03 23:37:00,61.7,57.1,30.37,NNE,22,1.0,2.0,85,0.00,,,0.00,Weather View 32 v70,2013-08-04 04:37:00,
2013-08-03 23:42:00,61.6,57.4,30.37,NNE,22,1.0,2.0,86,0.00,,,0.00,Weather View 32 v70,2013-08-04 04:42:00,
2013-08-03 23:47:00,61.6,57.4,30.37,NNE,22,2.0,2.0,86,0.00,,,0.00,Weather View 32 v70,2013-08-04 04:47:00,
2013-08-03 23:52:00,61.6,57.4,30.37,NNE,22,2.0,2.0,86,0.00,,,0.00,Weather View 32 v70,2013-08-04 04:52:00,
2013-08-03 23:57:00,61.5,57.3,30.37,NNE,22,1.0,2.0,86,0.00,,,0.00,Weather View 32 v70,2013-08-04 04:57:00,